Time,TemperatureF,DewpointF,PressureIn,WindDirection,WindDirectionDegrees,WindSpeedMPH,WindSpeedGustMPH,Humidity,HourlyPrecipIn,Conditions,Clouds,dailyrainin,SolarRadiationWatts/m^2,SoftwareType,DateUTC
2013-09-17 00:14:00,73.0,72.0,-100.00,West,266,0.0,-999.0,96,0.00,,,-99.99,0.000000,,2013-09-17 04:14:00,
2013-09-17 00:24:00,73.0,72.0,-100.00,North,5,1.0,-999.0,96,0.00,,,-99.99,0.000000,,2013-09-17 04:24:00,
2013-09-17 00:44:00,72.0,71.0,-100.00,NNE,19,1.0,-999.0,96,0.00,,,-99.99,0.000000,,2013-09-17 04:44:00,
2013-09-17 00:54:00,72.0,71.0,-100.00,SE,126,0.0,-999.0,96,0.00,,,-99.99,0.000000,,2013-09-17 04:54:00,
2013-09-17 01:12:00,72.0,71.0,-100.00,SE,143,0.0,-999.0,97,0.00,,,-99.99,0.000000,,2013-09-17 05:12:00,
2013-09-17 01:23:00,72.0,71.0,-100.00,ESE,118,1.0,-999.0,97,0.00,,,-99.99,0.000000,,2013-09-17 05:23:00,
2013-09-17 01:42:00,72.0,71.0,-100.00,SE,129,1.0,-999.0,97,0.00,,,-99.99,0.000000,,2013-09-17 05:42:00,
2013-09-17 01:52:00,72.0,71.0,-100.00,ENE,71,1.0,-999.0,97,0.00,,,-99.99,0.000000,,2013-09-17 05:52:00,
2013-09-17 02:12:00,71.0,71.0,-100.00,SSW,196,1.0,-999.0,97,0.00,,,-99.99,0.000000,,2013-09-17 06:12:00,
2013-09-17 02:22:00,71.0,71.0,-100.00,ESE,117,1.0,-999.0,98,0.00,,,-99.99,0.000000,,2013-09-17 06:22:00,
2013-09-17 02:42:00,71.0,70.0,-100.00,NNE,13,2.0,-999.0,98,0.00,,,-99.99,0.000000,,2013-09-17 06:42:00,
2013-09-17 02:52:00,71.0,70.0,-100.00,NNE,13,1.0,-999.0,98,0.00,,,-99.99,0.000000,,2013-09-17 06:52:00,
2013-09-17 03:11:00,71.0,71.0,-100.00,NNE,30,1.0,-999.0,98,0.00,,,-99.99,0.000000,,2013-09-17 07:11:00,
2013-09-17 03:23:00,71.0,71.0,-100.00,NNE,16,3.0,-999.0,98,0.00,,,-99.99,0.000000,,2013-09-17 07:23:00,
2013-09-17 03:42:00,71.0,71.0,-100.00,North,359,3.0,-999.0,98,0.00,,,-99.99,0.000000,,2013-09-17 07:42:00,
2013-09-17 03:52:00,71.0,71.0,-100.00,North,359,3.0,-999.0,98,0.00,,,-99.99,0.000000,,2013-09-17 07:52:00,
2013-09-17 04:12:00,71.0,71.0,-100.00,North,1,3.0,-999.0,98,0.00,,,-99.99,0.000000,,2013-09-17 08:12:00,
2013-09-17 04:22:00,71.0,71.0,-100.00,North,359,1.0,-999.0,98,0.00,,,-99.99,0.000000,,2013-09-17 08:22:00,
2013-09-17 04:42:00,71.0,70.0,-100.00,WSW,244,1.0,-999.0,98,0.00,,,-99.99,0.000000,,2013-09-17 08:42:00,
2013-09-17 04:52:00,71.0,70.0,-100.00,ESE,114,1.0,-999.0,99,0.00,,,-99.99,0.000000,,2013-09-17 08:52:00,
2013-09-17 05:02:00,71.0,70.0,-100.00,ESE,114,1.0,-999.0,99,0.00,,,-99.99,0.000000,,2013-09-17 09:02:00,
2013-09-17 05:12:00,71.0,70.0,-100.00,ESE,114,1.0,-999.0,99,0.00,,,-99.99,0.000000,,2013-09-17 09:12:00,
2013-09-17 05:22:00,70.0,70.0,-100.00,NNE,32,0.0,-999.0,99,0.00,,,-99.99,0.000000,,2013-09-17 09:22:00,
2013-09-17 05:43:00,70.0,70.0,-100.00,North,11,1.0,-999.0,99,0.00,,,-99.99,0.000000,,2013-09-17 09:43:00,
2013-09-17 05:53:00,71.0,70.0,-100.00,NNE,15,3.0,-999.0,99,0.00,,,-99.99,0.000000,,2013-09-17 09:53:00,
2013-09-17 06:12:00,70.0,70.0,-100.00,NNE,12,1.0,-999.0,99,0.00,,,-99.99,0.000000,,2013-09-17 10:12:00,
2013-09-17 06:23:00,70.0,70.0,-100.00,NE,49,1.0,-999.0,99,0.00,,,-99.99,0.000000,,2013-09-17 10:23:00,
2013-09-17 06:42:00,70.0,70.0,-100.00,SE,134,1.0,-999.0,99,0.00,,,-99.99,0.000000,,2013-09-17 10:42:00,
2013-09-17 06:53:00,70.0,70.0,-100.00,ESE,102,1.0,-999.0,99,0.00,,,-99.99,0.000000,,2013-09-17 10:53:00,
2013-09-17 07:11:00,69.0,69.0,-100.00,South,178,1.0,-999.0,99,0.00,,,-99.99,0.000000,,2013-09-17 11:11:00,
2013-09-17 07:22:00,69.0,69.0,-100.00,WSW,252,1.0,-999.0,99,0.00,,,-99.99,0.000000,,2013-09-17 11:22:00,
2013-09-17 07:43:00,69.0,69.0,-100.00,North,359,2.0,-999.0,99,0.00,,,-99.99,2.400000,,2013-09-17 11:43:00,
2013-09-17 07:52:00,70.0,70.0,-100.00,NE,35,3.0,-999.0,99,0.00,,,-99.99,12.100000,,2013-09-17 11:52:00,
2013-09-17 08:12:00,71.0,71.0,-100.00,North,4,1.0,-999.0,99,0.00,,,-99.99,59.700001,,2013-09-17 12:12:00,
2013-09-17 08:22:00,73.0,73.0,-100.00,North,8,2.0,-999.0,99,0.00,,,-99.99,107.900002,,2013-09-17 12:22:00,
2013-09-17 08:42:00,75.0,75.0,-100.00,NNE,30,2.0,-999.0,99,0.00,,,-99.99,155.899994,,2013-09-17 12:42:00,
2013-09-17 08:52:00,75.0,75.0,-100.00,NNE,30,2.0,-999.0,99,0.00,,,-99.99,155.899994,,2013-09-17 12:52:00,
2013-09-17 09:11:00,78.0,78.0,-100.00,NE,47,5.0,-999.0,98,0.00,,,-99.99,261.799988,,2013-09-17 13:11:00,
2013-09-17 09:22:00,79.0,78.0,-100.00,NE,42,6.0,-999.0,98,0.00,,,-99.99,306.700012,,2013-09-17 13:22:00,
2013-09-17 09:42:00,80.0,79.0,-100.00,ENE,68,7.0,-999.0,97,0.00,,,-99.99,348.100006,,2013-09-17 13:42:00,
2013-09-17 09:52:00,80.0,79.0,-100.00,ENE,76,8.0,-999.0,95,0.00,,,-99.99,325.500000,,2013-09-17 13:52:00,
2013-09-17 10:11:00,80.0,78.0,-100.00,ENE,57,8.0,-999.0,93,0.00,,,-99.99,206.100006,,2013-09-17 14:11:00,
2013-09-17 10:22:00,81.0,78.0,-100.00,NE,51,6.0,-999.0,91,0.00,,,-99.99,221.300003,,2013-09-17 14:22:00,
2013-09-17 10:42:00,81.0,78.0,-100.00,ENE,74,8.0,-999.0,87,0.00,,,-99.99,346.200012,,2013-09-17 14:42:00,
2013-09-17 10:52:00,83.0,77.0,-100.00,ENE,71,8.0,-999.0,82,0.00,,,-99.99,477.600006,,2013-09-17 14:52:00,
2013-09-17 11:11:00,84.0,75.0,-100.00,ENE,77,10.0,-999.0,74,0.00,,,-99.99,395.399994,,2013-09-17 15:11:00,
2013-09-17 11:22:00,84.0,75.0,-100.00,ENE,71,9.0,-999.0,74,0.00,,,-99.99,493.500000,,2013-09-17 15:22:00,
2013-09-17 11:44:00,85.0,75.0,-100.00,East,92,10.0,-999.0,70,0.00,,,-99.99,723.000000,,2013-09-17 15:44:00,
2013-09-17 11:53:00,87.0,75.0,-100.00,East,82,9.0,-999.0,67,0.00,,,-99.99,815.000000,,2013-09-17 15:53:00,
2013-09-17 12:13:00,87.0,73.0,-100.00,East,88,10.0,-999.0,63,0.00,,,-99.99,654.900024,,2013-09-17 16:13:00,
2013-09-17 12:23:00,86.0,73.0,-100.00,East,94,8.0,-999.0,64,0.00,,,-99.99,504.299988,,2013-09-17 16:23:00,
2013-09-17 12:42:00,87.0,74.0,-100.00,East,87,8.0,-999.0,65,0.00,,,-99.99,617.799988,,2013-09-17 16:42:00,
2013-09-17 12:54:00,87.0,74.0,-100.00,East,98,10.0,-999.0,63,0.00,,,-99.99,725.000000,,2013-09-17 16:54:00,
2013-09-17 13:12:00,89.0,73.0,-100.00,East,99,9.0,-999.0,60,0.00,,,-99.99,787.000000,,2013-09-17 17:12:00,
2013-09-17 13:24:00,89.0,73.0,-100.00,ENE,78,10.0,-999.0,60,0.00,,,-99.99,681.299988,,2013-09-17 17:24:00,
2013-09-17 13:43:00,88.0,74.0,-100.00,ENE,66,10.0,-999.0,61,0.00,,,-99.99,736.000000,,2013-09-17 17:43:00,
2013-09-17 13:53:00,89.0,72.0,-100.00,ENE,66,11.0,-999.0,58,0.00,,,-99.99,661.200012,,2013-09-17 17:53:00,
2013-09-17 14:12:00,89.0,73.0,-100.00,ENE,71,11.0,-999.0,59,0.00,,,-99.99,753.000000,,2013-09-17 18:12:00,
2013-09-17 14:22:00,89.0,72.0,-100.00,ENE,67,11.0,-999.0,58,0.00,,,-99.99,734.000000,,2013-09-17 18:22:00,
2013-09-17 14:42:00,89.0,73.0,-100.00,ENE,71,11.0,-999.0,60,0.00,,,-99.99,717.000000,,2013-09-17 18:42:00,
2013-09-17 14:52:00,89.0,74.0,-100.00,ENE,60,9.0,-999.0,60,0.00,,,-99.99,670.200012,,2013-09-17 18:52:00,
2013-09-17 15:12:00,89.0,73.0,-100.00,ENE,71,10.0,-999.0,59,0.00,,,-99.99,523.900024,,2013-09-17 19:12:00,
2013-09-17 15:22:00,89.0,71.0,-100.00,ENE,72,12.0,-999.0,57,0.00,,,-99.99,506.299988,,2013-09-17 19:22:00,
2013-09-17 15:42:00,89.0,71.0,-100.00,ENE,68,12.0,-999.0,54,0.00,,,-99.99,633.099976,,2013-09-17 19:42:00,
2013-09-17 15:52:00,90.0,71.0,-100.00,ENE,69,13.0,-999.0,53,0.00,,,-99.99,735.000000,,2013-09-17 19:52:00,
2013-09-17 16:11:00,90.0,71.0,-100.00,ENE,75,12.0,-999.0,54,0.00,,,-99.99,574.799988,,2013-09-17 20:11:00,
2013-09-17 16:22:00,88.0,70.0,-100.00,ENE,71,11.0,-999.0,55,0.00,,,-99.99,274.299988,,2013-09-17 20:22:00,
2013-09-17 16:42:00,89.0,72.0,-100.00,ENE,69,14.0,-999.0,57,0.00,,,-99.99,581.500000,,2013-09-17 20:42:00,
2013-09-17 16:52:00,89.0,72.0,-100.00,ENE,69,14.0,-999.0,57,0.00,,,-99.99,581.500000,,2013-09-17 20:52:00,
2013-09-17 17:02:00,89.0,72.0,-100.00,ENE,69,14.0,-999.0,57,0.00,,,-99.99,581.500000,,2013-09-17 21:02:00,
2013-09-17 17:12:00,89.0,72.0,-100.00,ENE,69,14.0,-999.0,57,0.00,,,-99.99,581.500000,,2013-09-17 21:12:00,
2013-09-17 17:54:00,87.0,71.0,-100.00,East,82,9.0,-999.0,59,0.00,,,-99.99,259.500000,,2013-09-17 21:54:00,
2013-09-17 18:13:00,87.0,71.0,-100.00,East,79,12.0,-999.0,59,0.00,,,-99.99,125.199997,,2013-09-17 22:13:00,
2013-09-17 18:24:00,86.0,71.0,-100.00,ENE,72,9.0,-999.0,62,0.00,,,-99.99,93.599998,,2013-09-17 22:24:00,
2013-09-17 18:43:00,85.0,71.0,-100.00,ENE,74,12.0,-999.0,62,0.00,,,-99.99,148.000000,,2013-09-17 22:43:00,
2013-09-17 18:53:00,85.0,72.0,-100.00,East,89,8.0,-999.0,63,0.00,,,-99.99,122.500000,,2013-09-17 22:53:00,
2013-09-17 19:12:00,84.0,72.0,-100.00,ENE,74,9.0,-999.0,65,0.00,,,-99.99,58.400002,,2013-09-17 23:12:00,
2013-09-17 19:22:00,84.0,71.0,-100.00,ENE,74,10.0,-999.0,64,0.00,,,-99.99,47.400002,,2013-09-17 23:22:00,
2013-09-17 19:42:00,84.0,71.0,-100.00,East,79,9.0,-999.0,65,0.00,,,-99.99,45.900002,,2013-09-17 23:42:00,
2013-09-17 19:52:00,83.0,71.0,-100.00,East,79,10.0,-999.0,66,0.00,,,-99.99,12.200000,,2013-09-17 23:52:00,
2013-09-17 20:11:00,82.0,71.0,-100.00,East,90,8.0,-999.0,69,0.00,,,-99.99,0.900000,,2013-09-18 00:11:00,
2013-09-17 20:22:00,81.0,72.0,-100.00,East,92,7.0,-999.0,72,0.00,,,-99.99,0.000000,,2013-09-18 00:22:00,
2013-09-17 20:42:00,81.0,72.0,-100.00,East,85,7.0,-999.0,74,0.00,,,-99.99,0.000000,,2013-09-18 00:42:00,
2013-09-17 20:52:00,80.0,72.0,-100.00,ENE,77,6.0,-999.0,76,0.00,,,-99.99,0.000000,,2013-09-18 00:52:00,
2013-09-17 21:11:00,80.0,72.0,-100.00,ENE,64,7.0,-999.0,77,0.00,,,-99.99,0.000000,,2013-09-18 01:11:00,
2013-09-17 21:22:00,80.0,72.0,-100.00,ENE,61,7.0,-999.0,79,0.00,,,-99.99,0.000000,,2013-09-18 01:22:00,
2013-09-17 21:42:00,79.0,73.0,-100.00,ENE,66,6.0,-999.0,80,0.00,,,-99.99,0.000000,,2013-09-18 01:42:00,
2013-09-17 21:53:00,79.0,73.0,-100.00,ENE,72,6.0,-999.0,82,0.00,,,-99.99,0.000000,,2013-09-18 01:53:00,
2013-09-17 22:11:00,79.0,73.0,-100.00,ENE,71,7.0,-999.0,83,0.00,,,-99.99,0.000000,,2013-09-18 02:11:00,
2013-09-17 22:22:00,79.0,73.0,-100.00,ENE,65,7.0,-999.0,83,0.00,,,-99.99,0.000000,,2013-09-18 02:22:00,
2013-09-17 22:43:00,78.0,73.0,-100.00,ENE,65,7.0,-999.0,83,0.00,,,-99.99,0.000000,,2013-09-18 02:43:00,
2013-09-17 22:52:00,78.0,73.0,-100.00,ENE,63,6.0,-999.0,83,0.00,,,-99.99,0.000000,,2013-09-18 02:52:00,
2013-09-17 23:12:00,78.0,73.0,-100.00,ENE,67,6.0,-999.0,84,0.00,,,-99.99,0.000000,,2013-09-18 03:12:00,
2013-09-17 23:23:00,78.0,73.0,-100.00,ENE,64,6.0,-999.0,86,0.00,,,-99.99,0.000000,,2013-09-18 03:23:00,
2013-09-17 23:44:00,78.0,73.0,-100.00,ENE,69,6.0,-999.0,86,0.00,,,-99.99,0.000000,,2013-09-18 03:44:00,
2013-09-17 23:55:00,77.0,73.0,-100.00,ENE,65,5.0,-999.0,87,0.00,,,-99.99,0.000000,,2013-09-18 03:55:00,